Regional Weather Roundup
Issued by NWS Little Rock, AR

Home | Current Version | Previous Version | Text Only | Print | Product List | Glossary Off
Versions: 1 2 3 4 5 6 7 8 9 10 11 12 13 14 15 16 17 18 19 20 21 22 23 24 25 26 27 28 29 30 31 32 33 34 35 36 37 38 39 40 41 42 43 44 45 46 47 48 49 50

509
ASUS44 KLZK 270105
RWRLZK

WEATHER ROUNDUP FOR ARKANSAS
NATIONAL WEATHER SERVICE LITTLE ROCK AR
800 PM CDT WED APR 26 2017

NOTE: "FAIR" INDICATES FEW OR NO CLOUDS BELOW 12,000 FEET WITH NO
SIGNIFICANT WEATHER AND/OR OBSTRUCTIONS TO VISIBILITY.

ARZ001-003-010-029-270200-
NORTHWEST ARKANSAS

CITY           SKY/WX    TMP DP  RH WIND       PRES   REMARKS
FAYETTEVILLE   CLOUDY    45  44  97 NW9       29.64R
FORT SMITH     CLOUDY    51  44  77 NW12      29.66R
HARRISON       CLOUDY    46  44  93 NW13G21   29.57R
BENTONVILLE    CLOUDY    45  41  87 NW6       29.63R
ROGERS         CLOUDY    44  43  96 NW14      29.63R
SILOAM SPGS    CLOUDY    45  39  81 NW15      29.65R
HIGHFILL       CLOUDY    45  44  97 NW12      29.63R
SPRINGDALE     CLOUDY    45  45 100 NW12G18   29.64R
$$

ARZ004-005-016-270200-
NORTH CENTRAL ARKANSAS

CITY           SKY/WX    TMP DP  RH WIND       PRES   REMARKS
BATESVILLE     CLOUDY   N/A N/A N/A S6        29.49R
FLIPPIN        CLOUDY   N/A N/A N/A NW13      29.54R
MTN HOME       LGT RAIN  49  47  93 N7G20     29.53R
$$

ARZ040-041-270200-
WEST CENTRAL ARKANSAS

CITY           SKY/WX    TMP DP  RH WIND       PRES   REMARKS
MENA           CLOUDY    52  50  93 W8        29.65R
MOUNT IDA      CLOUDY    52  49  89 NW8G20    29.58R
$$

ARZ009-017-025-026-028-270200-
NORTHEAST ARKANSAS

CITY           SKY/WX    TMP DP  RH WIND       PRES   REMARKS
JONESBORO      TSTM      58  57  97 SE3       29.52R
NEWPORT        RAIN      58  58 100 SE12      29.51
WALNUT RIDGE   CLOUDY    61  57  88 SE10      29.50R THUNDER
BLYTHEVILLE    TSTM      57  57 100 E3        29.54R
$$

ARZ022-023-033-042-044-270200-
CENTRAL ARKANSAS

CITY           SKY/WX    TMP DP  RH WIND       PRES   REMARKS
LITTLE ROCK    DRIZZLE   58  58 100 W12       29.54R FOG
N LITTLE ROCK    N/A     57  55  95 W6        29.53R
JACKSONVILLE   DRIZZLE   60  60  99 SW16      29.52R FOG
CONWAY           N/A     57  55  94 W9        29.53R
SEARCY         LGT RAIN  59  59 100 VRB5      29.48F
HOT SPRINGS    CLOUDY    56  54  93 W7G22     29.58R
RUSSELLVILLE   CLOUDY    53  50  89 W17       29.57R
CLINTON        HVY RAIN  57  55  94 CALM      29.52R VSB 3/4
$$

ARZ036-270200-
EAST ARKANSAS

CITY           SKY/WX    TMP DP  RH WIND       PRES   REMARKS
WEST MEMPHIS   TSTM      61  61 100 S8        29.53R FOG
$$

ARZ050-053-066-070-073-270200-
SOUTHWEST ARKANSAS

CITY           SKY/WX    TMP DP  RH WIND       PRES   REMARKS
ARKADELPHIA    CLOUDY    58  55  90 NW13      29.58R
CAMDEN         CLOUDY    63  59  88 SW6       29.55R
TEXARKANA      CLOUDY    54  52  93 W10       29.65R
EL DORADO        N/A    N/A N/A N/A MISG      29.57R
DE QUEEN       CLOUDY    53  50  89 NW8       29.65R
$$

ARZ056-057-069-270200-
SOUTHEAST ARKANSAS

CITY           SKY/WX    TMP DP  RH WIND       PRES   REMARKS
PINE BLUFF     LGT RAIN  60  59  96 W7        29.54R
STUTTGART      CLOUDY    61  52  72 E7        29.46F
MONTICELLO     LGT RAIN  64  61  90 SW7G20    29.53R

$$






USA.gov is the U.S. government's official web portal to all federal, state and local government web resources and services.